• Join FlightAware (Why Join?)
  • Login
  • US Flag 
01:29PM EDT


 

Airport Tracker/Info


-or-


 

Live Flight TrackerFlight Track Log ✈ AAL2360 ✈ 18-Apr-2013 ✈ KDFW - KORD

Flight Track Log - Related Links

Times and Time Zones

All times are in EDT time to prevent confusion due to time zone crossing. See the AAL2360 flight status page for this flight to view local times or setup timezone preferences in your user account.

Time Position Orientation Groundspeed Altitude Reporting Facility
EDT Latitude Longitude Course Direction KTS MPH feet Rate Location/Type
04:25PM 32.9167 -97.0333 332° Northwest 178 205 1,700  Level Dallas / Fort Worth TRACON
04:26PM 32.9667 -97.0167 16° North 210 242 4,300 2,340 Climbing Dallas / Fort Worth TRACON
04:28PM 32.8971 -96.8000 North  Level FlightAware Approximate
04:29PM 33.0248 -96.8311 328° Northwest  Level FlightAware Approximate
04:29PM 33.1144 -96.9644 16° North 261 300 9,000  Level Fort Worth Center
04:30PM 33.1442 -96.9065 333° Northwest  Level FlightAware Approximate
04:30PM 33.1914 -96.9319 19° North 302 348 10,800  Level Fort Worth Center
04:31PM 33.2646 -96.9799 332° Northwest  Level FlightAware Approximate
04:31PM 33.3019 -96.8864 19° North 349 402 12,600  Level Fort Worth Center
04:32PM 33.4000 -96.8461 19° North 399 459 14,000 1,800 Climbing Fort Worth Center
04:33PM 33.5228 -96.7756 26° Northeast 432 497 16,300 2,100 Climbing Fort Worth Center
04:34PM 33.6267 -96.7100 28° Northeast 449 517 18,200 1,920 Climbing Fort Worth Center
04:35PM 33.7556 -96.6264 28° Northeast 470 541 20,200 1,800 Climbing Fort Worth Center
04:36PM 33.8803 -96.5503 27° Northeast 482 555 21,900 1,680 Climbing Fort Worth Center
04:37PM 34.0028 -96.4714 28° Northeast 488 562 23,600 1,560 Climbing Fort Worth Center
04:38PM 34.1211 -96.3825 32° Northeast 496 571 25,100 1,380 Climbing Fort Worth Center
04:39PM 34.2433 -96.2831 34° Northeast 509 586 26,400 1,200 Climbing Fort Worth Center
04:40PM 34.3675 -96.1781 35° Northeast 525 604 27,500 1,260 Climbing Fort Worth Center
04:41PM 34.4958 -96.0756 33° Northeast 539 620 29,000 1,260 Climbing Fort Worth Center
04:42PM 34.6219 -95.9700 35° Northeast 544 626 30,100 1,080 Climbing Fort Worth Center
04:43PM 34.7522 -95.8617 34° Northeast 555 639 31,200 900 Climbing Fort Worth Center
04:44PM 34.8781 -95.7531 35° Northeast 555 639 32,000 840 Climbing Fort Worth Center
04:45PM 35.0036 -95.6392 37° Northeast 560 644 32,900 480 Climbing Fort Worth Center
04:46PM 35.1292 -95.5197 38° Northeast 566 651 33,000  Climbing Fort Worth Center
04:48PM 35.3444 -95.3158 38° Northeast 562 647 33,000  Level Kansas City Center
04:48PM 35.4681 -95.2006 37° Northeast 570 656 33,000  Level Memphis Center
04:49PM 35.5894 -95.0825 38° Northeast 565 650 33,000  Level Memphis Center
04:50PM 35.7108 -94.9642 38° Northeast 557 641 33,000  Level Memphis Center
04:51PM 35.8339 -94.8456 38° Northeast 557 641 33,000  Level Memphis Center
04:52PM 35.9547 -94.7292 38° Northeast 557 641 33,000  Level Memphis Center
04:53PM 36.0758 -94.6097 39° Northeast 557 641 33,000  Level Memphis Center
04:54PM 36.1986 -94.4900 38° Northeast 557 641 33,000  Level Memphis Center
04:57PM 36.4881 -94.2039 38° Northeast 555 639 33,000  Level Kansas City Center
04:58PM 36.6089 -94.0861 38° Northeast 553 636 33,000  Level Kansas City Center
04:59PM 36.7297 -93.9661 39° Northeast 554 638 33,000  Level Kansas City Center
05:00PM 36.8494 -93.8469 39° Northeast 552 635 33,000  Level Kansas City Center
05:01PM 36.9817 -93.7131 39° Northeast 545 627 33,000  Level Kansas City Center
05:02PM 37.1000 -93.5919 39° Northeast 546 628 33,000  Level Kansas City Center
05:03PM 37.2183 -93.4733 39° Northeast 543 625 33,000  Level Kansas City Center
05:04PM 37.3381 -93.3561 38° Northeast 542 624 33,000  Level Kansas City Center
05:05PM 37.4586 -93.2400 37° Northeast 543 625 33,000  Level Kansas City Center
05:06PM 37.6061 -93.1064 36° Northeast 541 623 33,000  Level Kansas City Center
05:07PM 37.7308 -92.9978 35° Northeast 540 621 33,000  Level Kansas City Center
05:08PM 37.8725 -92.9331 20° North 533 613 33,000  Level Kansas City Center
05:09PM 38.0147 -92.8669 20° North 536 617 33,000  Level Kansas City Center
05:10PM 38.1561 -92.7950 22° Northeast 537 618 33,000  Level Kansas City Center
05:11PM 38.3003 -92.7317 19° North 539 620 33,000  Level Kansas City Center
05:12PM 38.4411 -92.6633 21° North 535 616 33,000  Level Kansas City Center
05:13PM 38.5642 -92.5517 35° Northeast 544 626 33,000  Level Kansas City Center
05:14PM 38.6714 -92.4133 45° Northeast 542 624 33,000  Level Kansas City Center
05:15PM 38.7786 -92.2781 45° Northeast 539 620 33,000  Level Kansas City Center
05:16PM 38.8869 -92.1442 44° Northeast 538 619 33,000  Level Kansas City Center
05:17PM 39.0144 -91.9800 45° Northeast 537 618 33,000  Level Kansas City Center
05:18PM 39.1194 -91.8444 45° Northeast 534 615 33,000  Level Kansas City Center
05:20PM 39.2242 -91.7100 45° Northeast 532 612 33,000  Level Kansas City Center
05:21PM 39.3275 -91.5769 45° Northeast 531 611 33,000  Level Kansas City Center
05:22PM 39.4308 -91.4442 45° Northeast 527 606 33,000  Level Kansas City Center
05:23PM 39.5333 -91.3103 45° Northeast 524 603 33,000  Level Kansas City Center
05:24PM 39.6364 -91.1744 45° Northeast 525 604 33,000  Level Kansas City Center
05:25PM 39.7603 -91.0281 42° Northeast 529 609 33,000  Level Kansas City Center
05:26PM 39.8800 -90.9108 37° Northeast 540 621 33,000  Level Kansas City Center
05:27PM 40.0008 -90.7869 38° Northeast 548 631 33,000  Level Kansas City Center
05:28PM 40.1222 -90.6642 38° Northeast 550 633 33,000  Level Kansas City Center
05:28PM 40.2186 -90.5653 38° Northeast 550 633 33,000  Level Chicago Center
05:29PM 40.3389 -90.4422 38° Northeast 548 631 33,000  Level Chicago Center
05:31PM 40.4603 -90.3181 38° Northeast 550 633 33,000 -480 Level Chicago Center
05:32PM 40.5983 -90.1772 38° Northeast 547 629 32,100 -1,260 Descending Chicago Center
05:33PM 40.7194 -90.0525 38° Northeast 552 635 30,500 -1,560 Descending Chicago Center
05:34PM 40.8406 -89.9267 38° Northeast 555 639 28,900 -1,500 Descending Chicago Center
05:35PM 40.9550 -89.8039 39° Northeast 536 617 27,400 -1,620 Descending Chicago Center
05:36PM 41.0842 -89.6700 38° Northeast 519 597 25,600 -1,800 Descending Chicago Center
05:37PM 41.1800 -89.5378 46° Northeast 510 587 23,800 -2,100 Descending Chicago Center
05:38PM 41.2428 -89.3864 61° Northeast 476 548 21,300 -2,520 Descending Chicago Center
05:39PM 41.3039 -89.2331 62° Northeast 470 541 18,600 -2,640 Descending Chicago Center
05:40PM 41.3644 -89.0808 62° Northeast 456 525 15,900 -2,160 Descending Chicago Center
05:41PM 41.4197 -88.9414 62° Northeast 430 495 14,200 -1,920 Descending Chicago Center
05:42PM 41.4717 -88.8108 62° Northeast 406 467 12,000 -1,620 Descending Chicago Center
05:43PM 41.5208 -88.6872 62° Northeast 384 442 11,000 -1,020 Descending Chicago Center
05:44PM 41.5753 -88.5453 63° Northeast 362 417 10,000 -540 Descending Chicago Center
05:45PM 41.6244 -88.4386 58° Northeast 344 396 10,000  Level Chicago Center
05:46PM 41.6814 -88.3414 52° Northeast 335 386 10,000 -540 Level Chicago Center
05:47PM 41.7378 -88.2442 52° Northeast 331 381 8,900 -1,260 Descending Chicago Center
05:48PM 41.7956 -88.1461 52° Northeast 333 383 7,400 -960 Descending Chicago Center
05:49PM 41.8822 -88.1203 13° North 331 381 7,000 -240 Descending Chicago Center
05:50PM 41.9711 -88.1211 360° North 321 369 7,000 -600 Level Chicago Center
05:51PM 42.0500 -88.1686 336° Northwest 275 316 5,800 -1,320 Descending Chicago Center
05:52PM 42.1158 -88.1708 359° North 282 325 4,400 -1,200 Descending Chicago Center
05:53PM 42.1369 -88.0986 68° East 257 296 3,400 -720 Descending Chicago Center
05:54PM 42.1000 -88.0500 136° Southeast 155 178 3,000 -420 Descending Chicago TRACON